DRAGON CRS-32

Satellite information

Favourite Embed

Satellite Type and Status

PAYLOADDECAYED

Key statistics

Satellite DRAGON CRS-32 at a glance.

Uptime

34

Days in orbit

Revolutions

≈ 15.5

Per day

Orbit

LEO

Low Earth Orbit

Inclination

51.6

Latest

Satellite identification and parameters

Extended collection of information and parameters for DRAGON CRS-32.

Object identification

Identified? True

Debris? False

Object name: DRAGON CRS-32

International designator: 2025-080A

Object number (NORAD): 63628

Object ID (CCSDS): 63628

Country: UNITED STATES OF AMERICA (US)

Current information (Y/N): Y

RCS size: LARGE

Orbital parameters

Decay date: May 25, 2025

Period: 92.692 minutes

Inclination: 51.6379 deg

SMA: 6784.549 km

Apoapsis: 408.651 km

Periapsis: 404.176 km

RAAN: 67.0348 deg

Eccentricy: 0.0003298

Argument of periapsis: 91.9939 deg

Mean anomaly: 7.7176 deg

Mean motion: 15.53535968 rev/day

Mean motion (dot): 0.00207185 rev/day2

B* drag term: 0.0031222 1/REarth

Two-line elements (TLE)

Creation date: May 24, 2025, 1:16 a.m.

Reference frame: TEME

Reference center: EARTH

Epoch: May 23, 2025, 11:22 p.m. UTC

TLE line 0: 0 DRAGON CRS-32

TLE line 1: 1 63628U 25080A 25143.97378780 .00207185 00000-0 31222-2 0 9999

TLE line 2: 2 63628 51.6379 67.0348 0003298 91.9939 7.7176 15.53535968 5191

Live tracking on map

Satellite DRAGON CRS-32 has decayed and is no longer in orbit. No tracking available.

In-orbit conjunctions

Satellite DRAGON CRS-32 has decayed and is no longer in orbit. No conjunctions available.

Associated space launch

32nd commercial resupply services mission to the International Space Station operated by SpaceX. The flight will be conducted under the second Commercial Resupply Services contract with NASA. Cargo Dragon 2 brings supplies and payloads, including critical materials to directly support science and research investigations that occur onboard the orbiting laboratory.

DRAGON CRS-32 was lifted into orbit during the mission ‘Falcon 9 Block 5 | Dragon CRS-2 SpX-32’, on board a Falcon 9 space rocket.

The launch took place on April 21, 2025, 8:15 a.m. from Launch Complex 39A.

For more information about the launch, click the button.

Launch to space Falcon 9 Block 5 | Dragon CRS-2 SpX-32
Falcon 9 Block 5 | Dragon CRS-2 SpX-32

Agency: National Aeronautics and Space Administration

Status: Launch Successful

Launch date: April 21, 2025, 8:15 a.m. UTC

Rocket: Falcon 9

Launch pad: Launch Complex 39A

Location: Kennedy Space Center, FL, USA

...

Latest news about this satellite

News about space launch
NASA Sets Coverage for 32nd SpaceX Resupply Mission Departure

NASA and its international partners will soon receive scientific research samples and hardware after a SpaceX Dragon spacecraft departs the International Space Station on Thursday, May 22, for its return to Earth. Live coverage of undocking and departure ...

News about space launch
NASA Kicks Off Biological Research Aboard Space Station

Crew members are kicking off operations for several biological experiments that recently launched to the International Space Station aboard NASA’s 32nd SpaceX commercial resupply services mission. These include examining how microgravity affects productio...

News about space launch
ACES in space

The Atomic Clock Ensemble in Space (ACES), ESA’s state-of-the-art timekeeping facility, is now installed on the Columbus laboratory of the International Space Station. This still image, captured by external cameras on the Station, shows ACES after install...


Newsletter sign-up

Weekly statistics, charts and insights to help you stay on top of the space industry.